User: anonymous   Login
Location: Unspecified
(0.0000°N, 0.0000°E)
Time: 17:40:21
(UTC+00:00)
Language:

ISS - Orbit

View from above orbital plane
View from above orbital plane
View from above satellite
View from above satellite

Ground track
Ground track

The orbit data is extracted from the following two-line orbital elements,

1 25544U 98067A   18227.55765815  .00016717  00000-0  10270-3 0  9021
2 25544  51.6393  82.8318 0005683  57.3161 302.8539 15.53830083  7748
Epoch (UTC): 15 August 2018 13:23:01
Eccentricity: 0.0005683
inclination: 51.6393°
perigee height: 402 km
apogee height: 409 km
right ascension of ascending node: 82.8318°
argument of perigee: 57.3161°
revolutions per day: 15.53830083
mean anomaly at epoch: 302.8539°
orbit number at epoch: 774

The dashed part of the orbit path shows where the satellite is in the earth's shadow,  

DLR